Preview of NWS' New Version of Forecast
This preview is not operational and should not be used for support decisions.

Regional Weather Roundup (RWR)

Issued by National Weather Service (NWS)

                            
000
ASUS46 KSEW 191110
RWRWA 

WASHINGTON REGIONAL WEATHER ROUNDUP
NATIONAL WEATHER SERVICE SEATTLE WA
400 AM PDT FRI APR 19 2019

NOTE:"FAIR" INDICATES FEW OR NO CLOUDS BELOW 12,000 FEET WITH NO 
SIGNIFICANT WEATHER AND/OR OBSTRUCTIONS TO VISIBILITY.

WAZ507-509-555>559-191200-
SEATTLE, TACOMA, EVERETT, AND VICINITY
  
CITY           SKY/WX    TMP DP  RH WIND       PRES   REMARKS
EVERETT        LGT RAIN  54  51  90 S10       29.99S                  
BOEING FIELD   CLOUDY    55  51  86 S6        30.00F                  
RENTON         CLOUDY    56  53  90 S5        30.00S                  
SEATAC AIRPORT CLOUDY    54  50  86 SW9       30.00F                  
JBLM-MCCHORD   CLOUDY    54  54 100 W3        30.02S                  
PUYALLUP       CLOUDY    54  54 100 CALM      30.01S                  
BREMERTON      CLOUDY    52  50  93 SW13      30.00S                  
JBLM-FT LEWIS  CLOUDY    53  53 100 W3        30.01S                  
TACOMA NARROWS CLOUDY    53  50  89 W3        30.02S                  
$$
 
WAZ001-503-506-510-514-515-191200-
NORTH INTERIOR
  
CITY           SKY/WX    TMP DP  RH WIND       PRES   REMARKS
BELLINGHAM     CLOUDY    53  51  93 S7        29.97F                  
FRIDAY HARBOR  CLOUDY    51  50  96 CALM      29.98F FOG              
EASTSOUND      CLOUDY    54  54 100 S5        29.97S FOG              
PORT ANGELES   CLOUDY    51  50  96 W5        29.99S                  
EDIZ HOOK      CLOUDY    51  50  97 W6        29.98F                  
PORT TOWNSEND  CLOUDY    52  52 100 CALM      29.98S FOG              
NAS WHIDBEY    LGT RAIN  54  50  86 W6        30.01F                  
ARLINGTON      RAIN      54  53  97 CALM      29.99F                  
BURLINGTON     MOCLDY    54  54 100 W3        29.99R                  
$$
 
WAZ020-022-039-040-504-511-512-191200-
SOUTHWEST INTERIOR
  
CITY           SKY/WX    TMP DP  RH WIND       PRES   REMARKS
SHELTON        CLOUDY    53  50  89 SW12      30.00F                  
OLYMPIA        CLOUDY    54  51  90 SW5       30.02S                  
CHEHALIS       CLOUDY    55  54  94 CALM      30.03R                  
KELSO          CLOUDY    54  52  93 CALM      30.04S                  
VANCOUVER      MOCLDY    54  51  90 CALM      30.01F                  
SCAPPOOSE, OR  CLOUDY    54  50  86 W3        30.02S                  
PORTLAND, OR   CLOUDY    56  51  84 NW3       30.02F                  
$$
 
WAZ021-516-517-191200-
WASHINGTON COAST
  
CITY           SKY/WX    TMP DP  RH WIND       PRES   REMARKS
FORKS          LGT RAIN  50  50 100 SW6       30.00F FOG              
HOQUIAM        LGT RAIN  51  51 100 SW9       30.04S FOG              
ASTORIA, OR    CLOUDY    53  50  89 W8        30.05R                  
$$
 
WAZ019-023-024-040-567>569-191200-
CASCADE MOUNTAINS AND COLUMBIA GORGE
  
CITY           SKY/WX    TMP DP  RH WIND       PRES   REMARKS
STAMPEDE PASS  MOCLDY    47  44  90 CALM      30.00F FOG              
TROUTDALE, OR  MOCLDY    56  52  86 CALM      30.01F                  
HOOD RIVER, OR PTSUNNY   54  50  87 MISG      29.99S                  
THE DALLES, OR MOCLDY    60  50  69 NW9       29.96F                  
$$

WAZ026-027-041>044-520-521-191200-
EAST SLOPES
  
CITY           SKY/WX    TMP DP  RH WIND       PRES   REMARKS
OMAK           PTCLDY    51  44  77 NW6       29.88F                  
WENATCHEE      MOCLDY    52  47  83 NE6       29.91F                  
ELLENSBURG     CLOUDY    55  47  74 W7        29.96S                  
YAKIMA         CLOUDY    60  48  64 VRB6      29.94F                  
SUNNYSIDE ARPT CLOUDY    56  51  83 CALM      29.93F                  
YAKIMA TC      PTSUNNY   55  48  77 CALM      29.94S                  
$$

WAZ028-034-035-191200-
COLUMBIA BASIN
  
CITY           SKY/WX    TMP DP  RH WIND       PRES   REMARKS
EPHRATA        CLOUDY    55  50  83 S7        29.91F                  
MOSES LAKE     CLOUDY    60  49  66 S6        29.93F                  
PASCO          MOCLDY    63  55  75 NW3       29.93F                  
RICHLAND ARPT  PTSUNNY   58  52  80 MISG      29.93                   
HERMISTON, OR  PTCLDY    54  49  83 CALM      29.94F                  
$$

WAZ036>038-191200-
NORTHEAST WASHINGTON
  
CITY           SKY/WX    TMP DP  RH WIND       PRES   REMARKS
SPOKANE GEIGER CLOUDY    56  46  69 S5        29.96F                  
SPOKANE FELTS  CLOUDY    56  47  71 CALM      29.96F                  
FAIRCHILD AFB  LGT RAIN  54  52  94 S6        29.96F                  
COEURDALENE,ID LGT RAIN  53  47  79 SE5       29.98S                  
DEER PARK      CLOUDY    49  45  86 W3        29.97F                  
$$

WAZ029>033-191200-
SOUTHEAST WASHINGTON
  
CITY           SKY/WX    TMP DP  RH WIND       PRES   REMARKS
PULLMAN        MOCLDY    54  47  77 NE6       30.01F                  
LEWISTON, ID   PTCLDY    56  47  71 E5        29.99F                  
WALLA WALLA    PTCLDY    61  48  62 SE5       29.96S                  
PENDLETON, OR  PTCLDY    55  47  74 SE10      29.97F                  
$$